Raton, NM

10:45 AM MDT on April 28, 2017 (GMT -0600)
Raton Municipal-Crews

Weather History for KRTN - January, 2012

Change the Weather History Date:

Monday, January 9, 2012

  Actual Average (KTAD) Record (KTAD)
Temperature  
Mean Temperature 31 °F -  
Max Temperature 50 °F 42 °F 99 °F (2012)
Min Temperature 12 °F 12 °F -20 °F (1962)
Degree Days  
Heating Degree Days 34    
Moisture  
Dew Point 15 °F    
Average Humidity 66    
Maximum Humidity 93    
Minimum Humidity 25    
Precipitation  
Precipitation 0.01 in - - ()
Sea Level Pressure  
Sea Level Pressure 30.23 in    
Wind  
Wind Speed 4 mph (NE)    
Max Wind Speed 14 mph    
Max Gust Speed 26 mph    
Visibility 7 miles    
Events Fog    
Averages and records for this station are not official NWS values.
T = Trace of Precipitation, MM = Missing Value Source: NWS Daily Summary

Daily Weather History Graph

Daily Weather History Graph

Search for Another Location

Airport or City:

Trip Planner

Search our weather history database for the weather conditions in past years. The results will help you decide how hot, cold, wet, or windy it might be!

Date:

Astronomy

Jan. 09, 2012 Rise Set
Actual Time 7:10 AM MST 4:59 PM MST
Civil Twilight 6:42 AM MST 5:27 PM MST
Nautical Twilight 6:10 AM MST 5:59 PM MST
Astronomical Twilight 5:39 AM MST 6:31 PM MST
Moon 5:46 PM MST (1/9) 7:14 AM MST (1/9)
Length of Visible Light 10h 45m
Length of Day
9h 48m
Full, 100% of the Moon is Illuminated
Jan 9
Full
Jan 16
Last Quarter
Jan 23
New
Jan 30
First Quarter
Feb 7
Full

Hourly Weather History & Observations

Time (MST) Temp. Windchill Dew Point Humidity Pressure Visibility Wind Dir Wind Speed Gust Speed Precip Events Conditions
12:19 AM 21.2 °F - 17.6 °F 86% 30.20 in 10.0 mi Calm Calm - N/A   Overcast
12:40 AM 19.4 °F 12.8 °F 14.0 °F 80% 30.20 in 0.8 mi NNW 4.6 mph - N/A   Haze
12:49 AM 19.4 °F 14.3 °F 17.6 °F 93% 30.20 in 0.2 mi NNW 3.5 mph - N/A Fog Light Freezing Fog
12:53 AM 19.9 °F 14.9 °F 18.0 °F 92% 30.25 in 0.2 mi NNW 3.5 mph - N/A Fog Light Freezing Fog
1:12 AM 19.4 °F - 15.8 °F 86% 30.20 in 1.2 mi Calm Calm - N/A   Mostly Cloudy
1:16 AM 19.4 °F - 15.8 °F 86% 30.20 in 7.0 mi Calm Calm - N/A   Scattered Clouds
1:35 AM 17.6 °F 9.3 °F 12.2 °F 79% 30.21 in 1.8 mi NE 5.8 mph - N/A   Haze
1:38 AM 17.6 °F 9.3 °F 12.2 °F 79% 30.21 in 0.8 mi ENE 5.8 mph - N/A   Haze
1:49 AM 17.6 °F 10.7 °F 12.2 °F 79% 30.21 in 0.2 mi ENE 4.6 mph - N/A Fog Light Freezing Fog
1:53 AM 16.0 °F 8.8 °F 12.9 °F 88% 30.27 in 0.2 mi NE 4.6 mph - N/A Fog Light Freezing Fog
2:21 AM 12.2 °F - 10.4 °F 92% 30.21 in 1.0 mi Calm Calm - N/A   Mist
2:23 AM 12.2 °F - 10.4 °F 92% 30.21 in 2.0 mi Calm Calm - N/A   Scattered Clouds
2:30 AM 12.2 °F - 10.4 °F 92% 30.21 in 10.0 mi Calm Calm - N/A   Scattered Clouds
2:53 AM 15.1 °F - 10.9 °F 84% 30.27 in 10.0 mi Calm Calm - 0.01 in   Clear
3:53 AM 12.9 °F 5.2 °F 8.1 °F 81% 30.28 in 10.0 mi NE 4.6 mph - N/A   Clear
4:53 AM 14.0 °F 5.1 °F 8.1 °F 77% 30.30 in 10.0 mi East 5.8 mph - N/A   Clear
5:53 AM 12.9 °F 1.6 °F 7.0 °F 77% 30.33 in 10.0 mi NE 8.1 mph - N/A   Clear
6:53 AM 14.0 °F 2.0 °F 9.0 °F 80% 30.32 in 10.0 mi NE 9.2 mph - N/A   Clear
7:53 AM 18.0 °F 7.7 °F 10.9 °F 74% 30.32 in 10.0 mi ENE 8.1 mph - N/A   Clear
8:53 AM 27.0 °F 21.6 °F 17.1 °F 66% 30.29 in 10.0 mi Variable 4.6 mph - N/A   Clear
9:53 AM 39.9 °F - 18.0 °F 41% 30.24 in 10.0 mi Calm Calm - N/A   Clear
10:53 AM 46.0 °F 40.2 °F 12.0 °F 25% 30.23 in 10.0 mi NNE 12.7 mph 17.3 mph N/A   Clear
11:53 AM 46.9 °F - 15.1 °F 28% 30.19 in 10.0 mi NNE 13.8 mph 26.5 mph N/A   Clear
12:53 PM 48.9 °F - 16.0 °F 27% 30.17 in 10.0 mi NE 13.8 mph 20.7 mph N/A   Clear
1:53 PM 50.0 °F - 17.1 °F 27% 30.17 in 10.0 mi NE 4.6 mph - N/A   Clear
2:53 PM 46.9 °F - 19.0 °F 33% 30.20 in 10.0 mi NE 6.9 mph - N/A   Clear
3:53 PM 45.0 °F - 21.0 °F 39% 30.23 in 10.0 mi Calm Calm - N/A   Clear
4:53 PM 42.1 °F 38.4 °F 19.0 °F 40% 30.25 in 10.0 mi SE 5.8 mph - N/A   Overcast
5:53 PM 37.0 °F - 16.0 °F 42% 30.28 in 10.0 mi Calm Calm - N/A   Scattered Clouds
6:53 PM 33.1 °F 30.0 °F 16.0 °F 50% 30.30 in 10.0 mi WSW 3.5 mph - N/A   Clear
7:53 PM 27.0 °F 21.6 °F 17.1 °F 66% 30.29 in 10.0 mi NNW 4.6 mph - N/A   Clear
8:53 PM 28.0 °F 22.8 °F 18.0 °F 66% 30.22 in 10.0 mi NNE 4.6 mph - N/A   Clear
9:53 PM 28.9 °F 19.2 °F 18.0 °F 64% 30.15 in 10.0 mi ENE 11.5 mph 19.6 mph N/A   Clear
10:53 PM 37.0 °F - 23.0 °F 57% 30.07 in 10.0 mi North - - N/A   Clear
11:53 PM 37.9 °F 30.9 °F 23.0 °F 55% 30.03 in 10.0 mi North 10.4 mph - N/A   Clear